Theta_e
316 316 317 317 317 317 317 317 317 318 319 319 319 319 319 320 320 321 321 321 322 323 323 323 325 325 325 326 327 326 322 310 306 310 305 308 319 335 339 339 336 338 332 300 302 301 300 296 299 299 297 296 298 299 298 300 296 293 287 282 285 282 285 287 288 289 288 291 292 293 291 292 293 295 297 295 296 294 294 294 294 298 298 297 299 300 302 306
317 316 316 316 316 316 317 316 317 317 318 319 319 318 319 319 320 320 321 321 321 322 322 323 324 325 326 325 326 326 316 313 310 304 305 323 336 338 340 339 338 335 324 302 301 298 299 298 298 295 296 296 298 300 298 299 295 288 284 281 284 284 290 289 288 291 291 292 291 291 290 292 293 293 295 295 292 293 294 294 294 296 299 301 301 301 304 307
316 315 316 315 316 316 316 316 316 316 317 318 318 318 318 318 319 320 320 321 321 322 322 323 324 324 326 326 325 324 314 305 302 302 306 333 338 340 339 338 336 330 306 306 303 301 302 302 300 297 293 296 293 298 294 296 297 290 285 286 283 287 290 289 290 291 291 293 292 293 292 292 295 295 295 295 291 292 292 292 294 294 296 298 300 301 301 305
315 315 315 315 315 315 315 316 316 316 317 317 317 318 318 318 319 320 320 320 321 322 322 323 324 324 324 325 325 317 305 299 296 301 307 332 337 338 339 337 333 316 305 305 303 303 298 296 294 297 296 290 292 292 294 295 292 291 286 282 291 288 291 294 290 292 291 292 291 291 292 293 293 293 295 290 293 291 290 292 295 295 295 298 299 299 300 302
314 314 314 314 314 315 315 315 316 316 316 316 317 317 317 318 319 319 319 320 321 322 322 323 324 325 324 324 322 312 300 291 295 302 307 332 333 339 338 336 329 305 304 303 300 298 297 296 297 292 294 295 289 290 292 292 291 287 290 288 288 288 293 295 292 292 290 290 291 290 293 294 294 294 290 292 291 289 292 292 294 294 298 299 299 299 299 300
314 314 314 314 315 315 315 316 315 315 316 317 317 317 317 318 318 318 319 320 321 321 322 323 324 324 325 322 311 306 299 288 300 303 328 331 332 334 335 333 329 304 304 299 301 297 300 298 295 293 289 289 289 290 292 292 294 291 291 289 288 288 293 293 292 292 289 292 290 291 293 293 294 294 290 291 293 290 291 292 293 294 299 300 300 299 299 299
314 314 315 315 315 314 315 315 316 315 317 317 317 318 318 318 318 318 319 319 320 321 322 323 324 324 323 320 309 297 296 294 301 309 327 333 332 329 329 319 317 300 300 302 298 300 294 293 293 292 289 292 290 292 293 293 290 288 291 290 295 290 294 292 295 291 289 292 291 290 293 294 291 294 291 291 290 291 293 294 294 297 299 300 299 299 300 299
315 314 315 315 315 314 314 315 314 316 317 318 318 318 318 318 318 318 319 319 320 321 322 323 323 323 322 304 304 296 298 299 304 310 325 330 311 310 314 305 304 303 301 300 301 299 296 295 293 291 289 290 293 293 293 296 291 292 293 292 293 292 292 293 291 289 289 290 292 292 293 294 291 292 292 292 291 295 294 295 297 297 298 298 298 298 298 298
316 314 315 315 315 315 314 315 315 316 317 317 318 318 318 318 318 318 318 319 320 321 322 323 323 323 320 302 297 295 293 301 312 315 313 309 303 302 305 309 302 303 300 298 298 301 300 295 296 294 294 292 295 295 292 294 291 292 294 292 292 294 292 292 292 291 290 293 291 293 292 291 290 292 293 292 294 293 294 296 296 297 297 296 298 298 298 298
316 316 315 314 314 314 315 315 316 316 317 317 318 318 318 318 318 318 318 319 320 320 322 323 322 321 308 299 293 290 296 308 310 311 311 303 302 306 303 304 302 302 304 300 300 298 300 296 298 297 294 294 294 294 293 293 293 292 292 292 293 293 292 294 294 293 291 293 291 293 291 293 291 293 292 293 293 293 295 294 294 296 296 296 297 297 297 298
316 316 317 316 314 314 314 315 316 317 317 318 318 318 318 319 319 318 318 319 320 321 322 322 322 314 303 298 292 288 304 313 313 307 305 305 304 304 305 303 304 301 302 301 301 301 300 297 298 297 298 295 295 293 292 295 293 293 293 293 293 290 291 291 291 291 292 295 290 292 290 290 291 292 292 292 293 294 294 293 293 293 294 295 295 296 296 297
316 316 317 316 315 314 315 316 316 317 317 318 318 318 318 319 318 318 318 318 319 321 322 322 321 308 297 294 291 293 305 309 308 306 306 308 305 306 304 303 304 305 305 302 303 303 301 301 298 298 294 298 292 294 295 293 295 293 293 294 291 289 293 292 292 292 292 294 291 292 293 291 290 290 290 290 293 293 293 293 292 292 293 293 293 295 295 296
317 316 316 315 315 315 315 316 317 317 318 319 319 318 319 319 318 318 318 318 320 321 322 322 316 307 299 293 293 300 303 305 308 306 306 305 304 303 303 303 303 304 304 302 302 305 301 296 297 298 296 293 292 292 295 294 293 294 291 290 291 287 288 292 292 291 292 294 290 293 287 286 288 294 290 293 293 292 292 291 292 292 292 292 292 294 294 294
317 316 316 316 315 315 315 315 316 318 319 320 319 318 319 319 319 318 318 319 321 321 322 321 310 300 296 290 298 307 308 311 309 307 305 306 305 305 304 303 300 300 303 302 302 300 301 298 299 298 297 295 295 298 294 290 291 292 291 287 285 286 284 291 290 290 292 292 290 294 287 288 289 288 288 291 293 293 293 292 292 292 292 292 292 293 294 294
317 316 316 316 316 315 316 316 317 318 319 319 319 319 320 319 319 319 319 319 321 322 321 317 307 300 294 294 302 309 323 310 309 307 307 306 304 304 304 303 303 299 300 301 303 300 300 302 300 295 296 294 297 295 288 286 287 287 288 285 280 285 282 287 291 291 293 292 291 293 285 290 293 292 289 292 292 292 293 292 292 291 292 292 292 293 294 294
318 317 317 316 316 315 315 316 316 317 319 319 320 320 320 319 319 320 320 320 322 321 309 309 304 295 292 291 302 318 308 306 307 306 306 305 304 305 302 301 302 301 300 302 301 300 300 298 296 295 295 295 290 286 284 286 288 282 287 282 284 284 283 288 291 289 291 291 292 292 289 286 290 288 289 291 292 291 291 291 291 291 292 292 293 293 293 294
318 317 317 317 316 316 316 315 315 317 318 319 320 319 320 319 320 320 321 321 315 312 309 305 301 299 292 297 309 302 301 304 306 307 306 306 306 302 301 301 299 300 299 300 300 301 298 297 295 295 291 290 287 286 286 281 282 283 283 286 281 285 284 286 288 290 290 291 289 290 288 289 291 287 290 291 292 290 291 291 291 292 292 293 293 293 293 293
319 318 318 317 317 317 318 317 316 316 319 319 319 319 317 320 321 318 313 312 308 305 302 307 300 295 295 298 296 298 302 305 306 305 305 304 303 300 299 299 297 296 296 298 298 297 296 296 292 290 290 289 290 285 283 281 284 280 285 285 286 285 285 287 286 291 290 290 289 288 287 290 293 291 289 291 291 291 292 292 292 291 292 292 292 293 293 293
319 318 318 318 318 317 318 318 316 317 318 319 320 319 319 319 309 308 306 304 296 293 291 294 291 286 285 291 299 304 305 306 305 306 305 304 303 300 300 299 298 299 295 293 295 296 293 292 292 288 289 287 289 291 289 288 285 284 285 284 282 286 285 286 289 288 291 287 287 286 288 290 292 293 292 289 291 290 292 291 290 291 291 292 292 293 293 293
319 319 319 318 318 318 318 318 316 316 318 315 312 308 302 301 298 299 302 303 297 292 293 293 297 295 299 297 301 305 308 304 303 302 305 305 303 300 298 297 297 294 293 293 292 295 291 289 287 287 290 292 291 291 293 289 287 287 285 284 284 285 286 287 287 288 288 289 287 289 289 289 291 292 293 289 289 289 290 291 291 291 291 292 292 293 293 293
319 319 319 319 318 318 318 318 317 317 318 313 309 302 291 296 288 287 295 300 300 301 298 299 297 295 299 301 301 303 302 302 302 303 305 304 300 302 297 297 293 293 291 290 293 294 292 288 287 291 293 292 292 291 289 287 289 290 287 285 286 284 286 289 290 289 288 289 284 285 286 288 289 291 292 289 288 290 291 291 291 292 292 292 293 292 293 293
319 319 319 319 319 318 318 318 317 318 319 314 309 301 304 300 296 300 298 294 297 302 301 300 300 301 301 302 303 302 299 298 301 303 305 304 300 299 295 294 290 293 289 291 292 291 288 288 292 294 291 290 290 289 289 290 288 287 287 285 285 286 285 289 289 289 289 288 287 287 287 289 290 291 291 290 290 292 293 293 294 293 293 292 292 293 292 291
319 319 319 319 318 318 318 318 318 318 314 310 306 305 304 306 304 302 300 294 294 298 299 298 297 299 299 301 303 303 300 295 297 300 303 302 297 297 294 292 291 289 290 292 291 286 286 287 293 292 290 291 290 287 288 288 288 286 285 285 286 284 286 285 285 287 290 289 285 284 285 288 290 290 291 293 292 292 292 292 293 294 294 293 293 293 293 292
318 319 319 319 319 318 318 318 319 316 312 310 305 303 305 305 304 305 301 293 291 296 299 300 300 298 298 299 303 303 298 297 297 299 303 300 298 294 295 292 290 289 291 291 291 290 289 290 292 292 292 292 290 286 287 286 286 284 287 285 284 286 286 288 286 287 286 288 286 287 287 289 290 291 292 293 291 291 292 291 291 292 293 294 292 292 293 293
318 318 318 318 318 318 317 317 312 310 313 312 309 311 307 306 307 307 300 291 289 293 301 300 300 299 300 304 304 303 298 297 297 301 304 301 295 295 294 293 290 289 290 291 290 288 289 290 291 291 289 290 289 286 287 289 285 285 286 289 289 288 288 286 285 288 283 283 284 286 282 280 283 288 290 291 287 289 290 290 292 293 292 291 291 292 292 293
318 318 318 318 318 317 318 309 308 312 310 307 308 311 313 310 308 308 293 286 284 288 295 292 303 298 305 299 303 299 299 296 297 301 304 302 303 297 295 293 292 290 289 289 290 288 289 291 292 290 289 288 289 288 286 290 288 285 286 288 290 289 287 286 286 287 280 280 285 285 283 282 283 287 288 287 287 290 291 289 292 293 292 290 292 292 291 292
319 318 318 318 318 318 309 302 312 312 305 306 312 309 308 309 307 308 291 282 279 291 291 296 297 295 305 299 302 295 286 288 300 302 302 303 302 301 294 291 291 291 291 290 287 287 289 289 290 288 288 288 286 286 288 291 288 284 285 284 288 287 286 286 285 286 282 281 284 284 280 282 285 288 290 292 290 290 290 293 293 292 291 290 291 291 291 292
319 318 318 319 318 317 309 311 309 307 307 309 309 311 308 309 308 301 287 276 276 294 291 292 297 304 302 301 301 296 290 296 294 298 300 300 301 298 295 290 293 292 291 290 285 288 290 288 288 288 287 285 287 289 289 292 288 285 287 286 286 288 286 286 286 282 283 282 281 283 285 283 282 284 286 288 287 289 292 294 296 295 291 290 290 290 291 292
318 318 318 318 318 318 315 310 310 307 311 305 310 311 311 310 304 290 283 276 290 291 304 295 306 300 295 299 297 293 293 292 291 295 299 300 300 296 292 291 291 291 293 294 290 288 289 290 291 292 290 289 287 286 290 293 289 287 286 287 286 284 282 281 281 285 281 279 280 282 284 280 285 283 286 285 287 289 292 295 296 293 291 290 290 290 290 291
319 318 318 318 317 315 313 314 310 311 308 309 311 312 311 306 296 288 281 275 295 287 294 296 296 292 295 294 293 294 293 292 292 296 297 296 298 298 296 294 293 290 291 292 289 287 290 292 291 291 289 289 287 286 286 291 289 289 287 288 286 283 280 279 280 279 280 277 283 283 285 285 283 283 286 288 288 290 293 292 292 287 286 288 289 290 290 290
318 319 318 317 312 312 311 306 311 312 310 311 312 311 306 297 287 282 277 286 293 293 292 292 290 295 293 292 290 290 291 291 294 295 293 296 294 293 294 293 293 288 286 286 289 286 290 289 290 289 289 288 289 288 286 287 287 290 286 282 285 284 279 278 275 276 275 277 282 284 285 286 281 281 283 288 287 286 290 291 292 289 288 288 288 289 290 290
318 318 319 316 316 315 306 305 312 313 312 312 312 306 300 286 290 282 283 295 288 290 292 288 290 291 293 294 292 291 292 291 293 294 293 291 290 292 292 290 290 283 282 286 285 284 287 287 286 289 290 292 287 288 287 287 290 287 286 288 282 274 273 275 271 276 274 279 281 279 283 282 284 289 285 287 291 291 289 291 292 291 289 288 288 288 289 290
317 317 318 317 315 312 311 313 315 313 312 312 307 303 293 285 280 288 289 291 287 292 290 291 289 291 292 291 290 290 291 290 291 292 293 290 291 292 293 293 292 288 282 284 285 284 284 283 286 289 290 291 292 289 283 284 287 286 288 284 281 273 273 269 267 266 271 276 279 281 283 283 282 287 291 294 296 295 291 290 290 290 291 290 288 288 289 289
318 317 315 316 315 314 314 313 314 313 312 310 304 297 291 284 283 296 291 292 292 290 290 288 290 290 292 290 290 293 288 289 291 291 292 290 291 289 291 292 290 289 284 283 284 284 277 281 286 289 288 290 293 294 293 288 288 289 287 290 286 280 272 270 271 275 277 276 276 279 279 277 279 285 285 292 288 283 283 285 286 286 287 287 286 287 288 288
318 317 316 316 314 315 314 314 314 314 311 306 299 292 284 283 289 289 290 293 291 290 289 292 291 289 288 287 286 293 292 287 291 290 288 289 287 287 288 291 292 290 284 286 283 280 284 284 283 291 288 292 292 290 289 286 287 285 284 285 281 284 280 281 274 272 271 272 272 275 281 280 285 285 287 285 285 287 286 285 285 286 285 285 286 287 288 288
315 315 316 312 312 314 315 315 314 314 309 302 294 287 285 289 286 293 291 298 293 290 289 290 286 286 286 287 286 290 293 290 290 289 287 288 289 289 291 289 292 293 289 287 285 281 281 280 284 288 288 291 292 289 290 290 286 285 286 285 286 284 286 277 274 274 274 272 279 275 280 283 284 290 291 293 288 289 287 287 285 286 284 284 286 287 287 288
312 314 308 311 312 315 315 315 314 312 307 300 292 285 291 293 297 296 299 297 296 294 290 288 286 287 285 285 286 287 290 290 288 289 287 288 288 288 287 290 291 293 295 293 285 287 284 281 286 286 288 287 286 287 287 287 287 286 281 285 286 286 285 283 278 271 269 274 277 278 281 282 280 283 282 285 287 290 290 291 288 283 282 284 286 287 287 288
311 310 310 310 313 315 315 315 313 309 304 297 289 291 295 293 299 298 297 294 293 295 291 291 287 291 286 287 286 287 288 289 286 286 285 289 287 294 291 288 292 294 296 292 290 287 289 283 284 283 285 287 286 290 289 288 288 287 284 288 289 281 279 280 276 275 269 272 275 276 278 282 284 285 284 286 286 289 291 292 288 288 285 285 285 286 286 286
311 308 303 310 316 316 315 315 311 305 299 292 288 287 294 295 299 295 296 298 297 295 293 292 290 290 290 287 287 288 290 287 287 286 285 285 286 290 293 294 290 294 295 295 291 286 289 285 282 285 285 286 286 288 284 285 288 287 289 288 285 283 278 278 282 275 277 272 268 279 276 283 284 285 286 289 288 289 290 287 289 290 290 287 286 286 287 287
307 302 300 313 315 316 315 313 306 302 296 288 289 289 296 294 297 298 298 299 296 296 294 294 294 289 290 289 290 288 289 289 288 287 288 286 289 291 291 295 292 290 294 296 294 294 287 287 280 283 283 286 284 285 285 287 286 285 285 283 286 281 284 281 280 278 277 270 270 274 279 282 284 287 288 291 290 291 291 291 291 291 289 287 287 287 287 287
308 301 301 313 315 315 313 307 299 294 293 294 295 292 295 294 296 297 299 298 297 299 295 294 294 292 291 289 288 291 289 290 288 286 288 287 290 287 291 294 293 291 292 293 293 290 285 284 284 281 282 283 283 284 288 290 292 290 289 286 288 284 281 278 280 280 275 277 277 269 280 286 284 285 290 290 290 291 289 288 291 290 287 286 287 287 287 288
303 293 297 313 315 314 306 295 295 299 295 289 289 294 292 299 293 296 297 299 298 297 299 296 294 295 292 292 293 290 290 289 289 288 287 289 292 291 290 295 295 295 293 288 291 294 293 284 284 280 282 285 285 287 284 285 285 286 287 284 289 289 287 282 279 278 276 281 277 276 270 285 286 285 284 285 285 286 285 285 287 289 287 286 287 287 287 287
300 298 308 312 314 311 302 294 297 295 293 293 298 295 295 294 294 294 296 297 296 297 296 295 295 295 294 294 291 291 293 290 292 289 290 290 291 294 290 293 294 294 296 289 291 290 294 289 287 285 284 282 283 284 285 284 287 287 285 282 286 288 288 288 286 283 284 277 278 274 275 282 286 283 281 281 281 282 283 283 286 288 287 286 286 286 286 286
301 301 302 311 314 311 299 289 289 291 293 295 295 295 297 295 294 294 295 297 296 294 294 293 294 296 295 294 293 292 295 289 293 292 290 290 288 291 292 293 295 292 294 291 291 294 289 287 289 284 279 280 280 284 285 286 287 283 283 286 290 291 288 281 282 279 278 281 283 281 279 285 286 280 282 282 282 284 286 285 285 287 286 286 286 286 286 286
298 299 300 304 310 307 296 298 293 290 290 291 292 291 293 294 295 297 296 295 298 294 295 294 297 294 294 295 295 295 296 295 290 293 294 290 292 290 289 294 296 293 293 294 297 298 292 289 288 283 281 278 278 279 281 282 284 285 282 287 286 289 286 285 284 281 281 285 284 284 284 286 285 283 286 285 282 285 285 284 283 285 287 286 286 286 286 286
295 288 297 299 302 302 302 302 298 294 290 289 286 290 294 291 294 296 298 297 299 297 297 295 296 297 295 293 292 293 294 296 295 289 292 290 290 290 290 292 295 296 295 296 296 296 287 289 291 290 287 285 287 285 287 288 284 284 284 287 287 288 289 290 288 285 283 283 283 287 288 287 287 287 285 286 282 286 288 287 288 288 286 285 285 286 286 286
296 291 293 289 299 299 297 300 297 296 290 292 285 289 287 291 293 293 298 293 298 297 295 296 294 295 293 294 293 292 294 294 294 291 291 292 289 289 291 291 293 293 294 295 296 292 286 288 290 290 290 290 289 281 288 290 287 288 286 285 288 287 288 287 286 285 287 283 282 289 288 287 290 291 290 289 288 286 287 287 288 288 287 286 285 284 287 285
289 292 296 298 293 289 292 293 297 295 295 293 288 292 288 288 290 288 295 297 297 297 293 294 296 298 297 295 295 290 291 292 292 291 292 289 288 290 290 292 291 291 293 293 291 292 288 288 291 289 289 291 283 284 287 289 289 288 288 287 286 288 287 286 287 289 288 287 285 288 288 288 291 293 294 292 293 295 296 294 292 290 287 284 284 285 285 285
294 293 292 295 290 291 295 294 296 295 294 293 291 291 287 288 287 291 292 292 294 293 296 289 292 295 297 297 295 291 292 288 288 292 291 288 289 288 287 290 291 290 290 288 291 288 289 287 288 289 289 290 286 285 286 287 286 285 287 288 288 288 287 288 288 290 290 289 291 292 288 289 293 292 292 293 294 295 292 287 286 287 288 286 285 285 285 285
288 290 288 293 292 291 290 293 293 293 291 294 287 288 289 289 288 291 293 292 288 292 297 292 293 294 296 296 295 292 294 295 294 290 292 292 288 288 289 291 287 287 288 289 289 289 290 287 290 288 287 288 287 284 285 286 285 285 286 287 288 288 288 289 289 289 290 290 291 291 289 290 292 292 294 294 288 287 287 287 289 289 286 285 285 285 286 286
295 293 294 288 287 287 289 290 291 292 290 291 289 289 289 290 290 292 292 296 293 291 294 292 295 294 294 295 295 295 298 297 297 297 295 294 291 293 292 289 292 287 288 287 288 289 290 287 287 287 286 287 285 286 284 284 284 284 285 286 286 286 285 287 286 290 288 287 289 289 288 289 290 294 293 290 288 290 290 290 288 288 287 285 286 287 286 286
297 295 294 292 286 293 289 288 290 291 287 291 291 290 289 289 292 293 289 295 296 296 296 296 296 294 292 293 293 296 299 299 297 294 296 298 296 294 295 291 292 290 288 289 288 288 289 288 287 288 285 286 286 287 285 285 285 283 285 288 287 287 289 289 290 291 291 292 288 286 288 293 295 289 290 290 290 290 290 290 289 287 287 287 288 288 288 288
Wind_Speed
4 3 3 2 2 1 0 1 2 3 4 4 5 5 6 6 7 7 7 7 8 9 9 10 10 11 11 11 12 13 11 3 3 0 0 3 1 1 2 3 5 5 4 2 7 4 2 5 7 10 5 4 3 1 1 2 1 2 2 6 2 2 3 4 5 9 1 3 4 3 3 5 1 0 1 1 8 3 2 4 3 3 3 0 1 1 1 2
5 4 3 3 1 0 0 1 2 3 4 4 5 5 6 6 7 7 8 8 8 9 9 9 10 10 11 11 11 12 6 3 0 1 6 1 1 2 4 4 4 5 3 4 5 3 2 4 4 6 4 1 2 0 1 0 2 4 2 3 5 4 1 5 3 6 2 3 4 2 1 4 4 6 1 1 1 1 1 2 2 2 1 2 3 3 4 5
5 5 4 3 2 1 0 1 2 2 3 4 4 5 5 6 6 7 8 8 8 9 9 9 10 10 11 11 11 9 3 1 1 1 1 3 3 4 4 4 4 5 4 0 0 2 1 2 1 2 4 1 7 1 4 2 1 1 3 2 2 6 1 4 4 4 5 2 5 3 1 2 1 2 1 2 4 0 3 4 1 2 3 3 0 2 3 5
5 5 4 3 2 1 0 1 2 2 4 4 5 5 5 6 6 7 7 8 8 8 9 10 10 10 11 12 11 4 1 1 1 1 1 5 4 3 4 4 3 4 2 3 2 1 2 4 5 3 1 5 3 2 3 3 2 0 3 3 3 4 2 1 3 3 3 4 4 3 0 2 1 2 1 3 4 4 6 7 8 11 9 8 4 2 4 5
4 4 4 3 3 1 1 2 2 3 3 4 5 5 5 6 6 7 7 8 8 9 9 10 11 10 11 11 10 0 3 2 2 1 3 5 5 5 4 4 2 2 2 3 3 5 6 4 1 4 3 0 3 3 1 2 2 3 1 1 2 2 1 2 3 3 4 2 7 1 4 3 1 1 3 7 5 6 7 5 9 5 9 11 9 5 4 5
4 4 3 3 3 1 1 2 1 3 3 3 4 5 5 6 6 7 8 8 8 9 10 10 11 12 12 10 1 1 2 0 1 1 6 5 4 5 5 3 3 1 1 4 1 3 2 4 3 2 2 2 2 2 2 0 2 1 2 0 2 2 1 1 1 4 4 3 4 3 3 2 1 1 2 6 7 4 2 4 4 6 9 7 5 6 6 6
4 4 4 3 2 2 2 3 4 3 3 4 4 5 6 6 7 7 8 8 9 9 11 11 11 12 13 3 1 3 1 3 1 3 5 4 4 4 4 5 4 4 4 2 5 1 3 3 4 1 2 2 1 1 1 3 3 6 2 0 0 2 4 4 2 4 2 10 5 4 1 3 3 4 1 3 5 3 3 2 3 5 7 7 8 5 7 6
6 5 4 3 3 3 4 3 2 4 3 5 5 5 6 7 7 8 8 9 9 10 11 11 12 12 10 1 1 2 1 2 2 3 6 4 6 5 4 3 6 3 6 3 0 1 1 4 2 2 5 3 1 2 3 1 5 2 1 1 1 1 2 0 0 1 1 1 0 5 4 3 5 2 1 5 6 0 2 4 6 7 7 5 6 6 6 5
6 5 5 4 4 4 4 4 2 3 4 5 5 6 7 7 7 8 9 9 10 11 11 12 12 12 4 1 2 1 3 1 3 4 4 5 6 7 5 1 5 5 2 2 3 3 2 1 0 3 2 1 0 2 3 1 2 1 0 2 0 1 2 0 0 1 2 1 2 3 3 2 3 2 3 7 4 3 3 5 5 6 6 6 6 6 6 6
7 7 7 6 4 5 5 5 4 3 5 5 6 7 6 8 9 8 8 9 9 10 10 11 12 10 2 2 2 0 2 2 4 3 2 4 6 6 9 2 3 4 1 3 2 4 2 3 2 3 6 3 1 1 1 1 0 2 2 2 1 0 2 0 4 3 1 1 2 4 2 1 2 2 8 0 4 4 5 5 3 6 7 5 5 4 4 7
8 7 7 7 5 5 6 5 5 5 5 6 6 7 7 9 10 10 9 8 9 9 10 10 10 7 0 2 3 5 2 2 1 2 2 3 7 7 2 4 1 3 4 2 3 0 2 4 3 3 1 1 2 2 1 0 2 3 1 0 0 6 2 1 1 4 0 2 5 5 3 1 1 1 9 3 4 5 8 5 4 4 5 4 4 5 4 4
9 9 8 7 6 6 6 5 5 5 5 6 6 7 8 9 10 10 9 8 8 8 10 8 8 1 1 3 3 4 1 3 3 1 1 2 4 3 4 1 2 2 1 1 0 0 1 2 4 1 1 0 1 0 1 0 1 0 0 1 5 6 3 0 5 2 3 3 4 4 1 3 1 7 5 3 4 4 6 6 5 5 4 4 4 4 4 4
9 9 9 7 7 7 6 6 6 6 6 6 7 7 8 9 10 10 8 7 7 9 8 8 5 2 1 1 6 6 2 2 0 3 3 4 4 3 3 2 4 2 2 3 1 0 2 4 3 6 0 3 2 0 1 3 1 0 5 1 4 6 4 1 0 0 5 2 4 2 4 7 9 12 2 1 8 4 4 5 5 5 4 4 4 4 4 3
8 8 8 8 8 7 7 7 5 6 7 7 6 7 8 9 10 8 7 7 9 8 8 7 3 1 1 3 3 3 3 1 1 4 1 1 4 2 3 4 4 4 2 5 1 1 1 0 5 5 2 2 0 0 2 3 4 1 1 3 0 3 4 1 1 2 5 1 4 1 4 8 7 6 3 4 6 11 9 8 7 6 5 4 4 4 5 5
10 10 10 10 8 7 7 8 7 7 7 6 6 7 9 10 10 8 7 8 7 7 7 3 2 1 1 5 2 5 4 1 2 1 0 2 3 1 1 3 4 5 1 4 1 1 1 2 3 2 0 1 1 1 2 3 4 2 2 3 4 3 5 7 2 6 5 0 0 2 2 10 10 7 2 5 5 5 9 8 7 7 6 6 5 6 6 6
10 10 10 10 9 8 8 7 8 9 7 7 7 8 8 10 9 8 7 6 9 6 1 0 3 4 3 2 1 2 1 1 1 1 0 3 2 1 1 3 1 5 2 2 2 1 6 7 7 1 0 2 6 6 3 3 2 5 1 4 1 0 5 9 0 2 0 2 1 5 7 4 5 3 2 3 5 5 5 6 7 8 8 7 7 6 5 4
11 11 10 10 10 9 7 7 6 8 8 7 9 8 8 7 8 10 9 6 2 0 0 0 1 1 1 2 0 1 4 3 2 1 1 1 2 4 4 2 1 1 4 3 7 2 6 4 3 1 4 4 3 5 2 3 5 3 2 3 3 2 2 2 5 1 1 3 4 2 2 7 5 2 1 2 5 5 7 9 9 8 7 7 6 6 7 7
11 11 11 10 10 9 6 5 6 7 8 8 9 8 6 9 7 7 5 4 1 2 1 1 1 1 6 2 2 5 0 2 1 3 4 1 4 4 3 2 0 4 3 1 4 2 2 0 4 4 1 2 1 3 4 6 7 3 2 1 6 1 4 5 1 1 4 1 3 1 4 10 13 7 4 6 6 7 11 12 8 7 7 7 8 8 8 7
12 11 11 11 10 9 7 6 5 6 6 8 9 8 7 3 2 2 3 2 2 2 1 3 4 5 3 6 0 3 1 3 2 4 2 3 1 3 4 3 4 5 0 2 2 1 2 4 4 3 3 2 6 9 10 10 6 3 7 6 3 2 3 3 6 3 6 4 5 5 8 11 13 14 8 6 7 10 12 6 5 7 8 9 9 9 9 9
13 12 12 11 10 9 7 7 6 7 4 4 4 2 2 1 2 1 2 1 3 5 2 4 3 0 1 1 3 1 1 4 5 2 1 1 5 3 4 2 3 6 4 4 1 1 1 4 5 7 10 11 7 10 10 4 5 4 3 2 4 4 6 4 4 4 1 0 7 9 9 9 10 11 12 4 4 6 8 10 11 9 10 11 11 12 11 10
13 13 12 12 10 9 8 7 7 4 0 2 1 0 3 6 6 4 3 6 4 1 0 1 5 1 0 0 0 4 5 1 2 1 2 1 3 8 2 2 2 2 1 2 5 1 3 3 8 11 13 9 10 8 2 4 1 1 1 2 5 2 7 4 1 1 1 4 4 4 6 10 13 12 12 1 5 10 13 14 14 14 13 12 13 13 13 9
14 14 13 12 11 9 9 7 8 4 2 2 1 2 1 2 1 1 3 3 5 11 7 4 2 2 2 3 3 3 4 3 0 1 1 2 4 8 2 4 4 9 1 3 2 2 2 9 11 14 1 3 2 4 4 5 3 1 3 2 2 7 4 10 7 2 1 2 9 6 7 10 10 11 10 7 11 10 12 14 18 17 15 13 12 13 10 6
14 14 13 12 11 11 10 8 6 5 2 3 3 2 3 3 1 2 1 3 4 2 8 5 4 5 4 3 1 1 1 4 8 6 5 2 3 4 6 4 4 3 1 4 9 4 2 5 18 3 5 4 1 2 4 1 0 3 1 1 8 3 0 6 1 2 0 4 3 0 5 9 9 9 13 14 12 11 10 11 15 12 15 16 16 15 14 14
14 14 14 13 12 11 10 9 5 3 6 4 3 6 2 0 2 1 0 2 2 4 5 7 9 3 6 4 4 6 5 3 4 8 3 6 10 3 5 5 5 4 9 8 9 11 11 3 1 6 7 8 5 3 5 4 6 4 6 5 3 4 7 8 5 3 1 2 2 5 8 10 8 14 10 10 4 6 11 8 11 12 12 10 6 6 11 15
15 15 14 13 13 11 10 6 4 5 2 4 8 7 4 2 2 3 0 2 1 4 1 2 4 3 5 2 2 7 2 0 4 3 6 8 6 4 5 1 5 5 6 9 4 4 10 7 3 6 5 5 4 3 7 8 7 3 7 11 10 7 7 5 3 4 6 4 3 2 7 6 5 10 13 6 3 3 7 8 15 16 10 8 10 13 8 8
16 16 15 15 14 13 10 5 5 4 6 7 3 5 8 5 2 1 3 2 6 3 2 6 5 6 6 3 4 4 4 4 4 4 9 6 3 4 2 1 2 9 6 4 6 5 6 1 5 6 6 5 6 5 4 8 8 3 6 10 12 9 6 3 1 2 3 4 1 1 3 12 2 7 6 6 4 11 7 7 15 13 10 8 12 9 10 11
17 17 16 16 17 15 9 7 4 8 4 8 7 4 4 4 2 0 1 3 5 5 8 2 2 2 0 4 10 5 3 7 1 4 6 2 8 0 6 5 2 2 3 3 3 8 2 2 5 4 5 6 5 5 5 12 7 4 2 4 6 5 5 6 4 6 6 1 4 1 2 6 16 6 6 10 9 8 9 14 16 13 9 9 9 8 9 11
18 17 18 18 19 18 3 3 9 10 6 1 3 7 4 5 4 1 3 0 5 4 2 3 2 2 2 5 12 12 2 3 6 4 1 1 1 1 1 8 11 11 4 4 10 1 6 5 5 4 2 4 8 7 4 9 7 4 0 6 5 6 5 2 3 3 0 3 9 1 0 4 8 3 3 3 3 6 13 17 15 10 8 9 8 9 9 11
19 19 19 18 19 20 7 3 4 12 4 1 5 7 5 5 2 4 4 4 1 2 2 5 5 2 2 4 6 2 2 5 1 0 1 2 2 2 4 5 4 5 5 11 13 0 1 5 9 10 8 9 5 2 8 11 5 2 5 8 7 7 6 3 3 2 2 1 8 5 3 3 19 3 3 2 3 7 11 15 14 7 6 7 9 9 8 7
20 20 20 20 15 12 10 5 5 2 2 4 5 7 7 5 2 2 3 7 1 3 0 0 2 6 5 13 6 1 4 1 2 1 2 4 1 2 1 3 4 3 4 4 5 4 1 3 4 4 7 4 5 2 3 6 2 7 4 7 6 8 4 3 6 2 2 6 9 8 10 7 13 1 8 8 7 9 11 7 8 4 4 4 6 7 9 9
22 22 22 22 14 10 7 8 13 4 3 5 7 8 6 5 4 5 9 5 3 1 2 2 2 5 12 13 8 2 3 0 1 6 3 0 1 2 0 4 3 4 1 3 8 3 1 2 1 1 4 3 4 4 4 1 3 6 2 4 4 3 6 4 4 4 1 8 2 8 12 11 12 3 5 6 3 4 7 8 9 6 6 6 5 6 8 8
23 24 25 19 11 10 16 15 9 7 6 8 10 9 6 5 5 9 8 4 2 6 9 5 0 6 13 7 8 13 11 1 4 6 11 7 7 10 10 11 7 3 4 9 9 3 6 6 2 3 4 9 3 6 4 3 0 3 5 7 6 4 5 3 3 2 6 9 0 3 1 4 19 11 2 7 10 8 9 9 9 7 7 6 5 7 7 7
20 22 26 19 13 11 12 3 11 10 7 8 7 1 6 8 13 11 9 6 5 5 4 3 6 8 10 6 6 5 3 9 2 4 5 1 8 11 7 8 8 6 8 3 6 2 7 1 1 2 2 5 9 9 3 2 6 5 8 8 7 0 1 4 5 2 7 6 3 1 1 9 2 7 10 17 19 12 6 8 8 7 8 7 6 6 7 8
20 19 14 14 13 10 7 5 8 9 9 8 11 8 0 7 9 12 17 11 3 2 5 3 5 2 13 12 7 10 4 3 9 5 6 7 9 9 9 9 5 3 4 2 9 9 5 6 8 8 6 5 10 12 14 7 11 12 3 12 11 9 7 4 6 6 7 4 2 5 2 8 4 5 2 9 5 5 5 6 5 6 6 5 3 5 5 7
19 18 14 11 10 9 10 8 10 13 11 9 10 12 15 12 5 12 14 11 0 1 3 3 8 8 6 3 2 8 4 3 5 6 5 9 9 8 9 12 11 4 2 4 4 3 11 8 6 8 1 9 14 2 6 6 3 2 2 5 4 9 7 7 4 3 1 2 4 2 7 5 6 2 5 4 5 7 6 6 4 7 3 2 4 7 9 10
10 10 14 8 13 13 12 10 13 13 11 12 13 12 16 13 13 9 6 5 1 5 4 5 4 5 6 6 3 9 2 2 4 4 3 6 4 9 8 5 14 17 10 11 4 4 2 6 1 3 4 6 7 3 3 5 8 5 6 8 6 2 4 2 3 1 1 2 12 4 9 7 8 11 11 13 6 9 5 8 7 7 2 2 6 7 8 9
6 6 9 10 13 13 14 13 14 14 11 13 14 15 14 9 8 5 4 14 10 13 7 9 6 9 7 8 6 6 6 5 4 6 7 3 6 7 5 7 5 12 16 10 2 4 8 6 1 4 5 1 0 0 3 4 4 9 4 8 2 2 3 3 6 2 3 5 8 4 10 8 1 14 3 2 5 11 8 13 9 4 3 7 9 8 9 10
3 3 8 13 15 15 15 13 14 12 13 14 16 10 4 10 4 7 1 5 6 10 8 12 3 10 6 10 9 8 3 8 6 5 5 7 6 7 9 3 7 14 19 3 5 3 3 6 1 1 1 4 2 2 2 2 3 6 6 5 8 4 3 2 3 5 1 5 7 5 3 11 11 12 2 2 7 9 14 13 6 12 10 11 7 6 5 5
2 3 4 13 9 15 16 17 16 15 12 12 11 13 6 11 3 2 5 5 4 10 12 8 7 6 8 10 5 6 12 11 10 10 7 4 7 6 16 11 6 11 11 9 4 2 1 6 3 1 3 1 1 3 10 3 2 2 3 4 1 3 1 6 8 2 5 5 1 10 7 17 6 8 9 9 11 10 9 6 10 14 14 8 7 7 9 10
6 3 9 4 17 17 16 17 15 13 11 17 12 12 3 10 4 3 4 8 5 10 9 10 8 4 7 8 11 9 8 8 12 11 8 4 10 2 8 10 6 5 12 15 10 4 4 1 7 0 2 2 4 5 9 12 10 1 2 4 1 1 1 4 1 4 4 4 4 6 11 8 4 6 9 10 11 10 9 10 9 11 7 5 8 10 10 10
3 3 3 7 16 16 14 13 14 16 12 7 10 9 5 6 6 6 7 3 1 3 3 6 9 12 7 6 4 4 7 9 6 7 7 5 10 6 7 9 7 6 4 6 9 4 3 3 9 2 0 7 6 3 5 10 12 13 15 15 15 10 5 4 7 2 1 2 7 2 14 11 3 3 7 7 5 7 5 3 9 8 3 5 7 8 9 10
7 9 7 11 14 18 16 16 9 10 9 12 16 13 7 5 1 9 7 5 3 3 2 1 2 6 6 9 10 9 7 8 9 8 6 11 10 8 2 12 11 14 14 10 15 12 7 3 5 6 7 9 4 0 1 2 1 1 2 4 6 7 6 5 7 6 1 5 3 3 1 17 3 2 3 4 3 5 3 1 7 7 5 4 6 6 5 6
7 11 3 9 19 20 14 15 12 11 11 10 1 2 1 1 5 3 9 7 9 5 1 5 6 8 5 5 5 7 12 7 13 12 7 10 8 13 4 13 8 11 10 1 2 0 6 3 4 3 1 3 3 3 1 1 3 1 1 1 6 10 9 11 7 5 9 2 3 1 4 9 3 0 3 4 3 6 4 4 7 8 5 3 5 7 8 7
5 7 1 1 14 16 16 15 13 13 10 8 10 9 6 2 4 5 11 13 11 6 9 3 1 5 4 3 3 8 10 6 6 12 9 5 6 4 9 9 13 9 11 9 12 10 5 4 8 2 1 1 3 3 2 1 1 3 4 6 11 11 6 2 5 2 2 9 10 9 15 14 3 2 2 3 4 4 6 4 6 7 6 4 6 7 7 7
2 1 2 3 8 13 13 9 13 13 14 15 13 16 8 6 4 10 9 9 6 3 5 7 8 3 3 1 6 6 11 16 4 11 11 5 7 1 4 11 14 9 8 2 0 9 9 10 12 11 14 13 9 12 16 12 11 4 3 6 5 10 10 5 7 4 7 9 13 9 18 5 2 3 4 4 3 5 7 5 4 7 6 4 4 6 7 9
3 6 4 5 6 8 12 7 1 6 11 10 7 10 13 10 2 4 6 9 12 5 7 2 2 8 7 5 5 9 11 12 14 3 10 5 3 1 4 6 11 10 9 7 6 9 3 3 11 16 18 18 17 2 5 12 6 9 9 13 13 10 12 12 7 6 17 4 9 18 22 8 6 1 3 5 2 5 5 5 5 5 5 4 4 5 6 8
3 6 4 5 4 12 10 7 9 8 8 8 7 6 12 16 8 1 5 4 8 10 4 2 3 8 3 9 12 10 9 9 6 2 7 11 1 1 3 3 3 4 5 4 3 6 3 4 13 16 18 17 7 4 9 20 17 17 12 13 15 14 15 14 14 18 7 4 14 20 6 11 22 10 10 7 7 5 8 8 8 8 6 4 5 4 5 6
8 4 3 3 4 7 15 16 8 8 10 15 6 4 11 13 11 7 2 8 0 3 6 1 5 13 17 20 14 10 8 9 9 13 7 2 3 0 1 1 3 1 2 1 1 4 7 13 13 9 14 17 2 4 9 10 14 14 16 16 17 18 17 20 23 16 10 14 22 6 12 15 21 14 14 10 10 12 14 13 9 5 2 3 4 5 7 9
3 4 3 2 1 2 14 12 19 16 9 15 8 11 8 12 14 12 5 7 6 3 9 7 15 17 15 15 13 11 11 8 11 12 10 6 8 5 2 1 3 2 1 1 4 4 4 5 5 6 13 13 4 5 7 10 5 3 12 16 19 21 24 23 21 19 16 16 18 17 8 14 21 6 7 9 13 13 7 1 1 4 6 5 5 7 9 9
5 6 4 0 2 6 4 3 4 10 16 9 5 8 8 9 14 12 7 7 7 13 10 16 17 17 15 10 12 13 15 18 16 13 7 13 5 5 8 7 5 1 1 6 4 3 4 4 6 3 5 12 6 5 6 7 6 8 9 14 19 21 21 22 20 18 17 17 23 15 14 26 13 5 11 10 1 0 2 5 8 7 4 5 7 8 9 10
1 1 1 2 3 3 3 3 4 9 8 11 12 7 7 12 15 14 13 10 15 11 12 21 24 18 11 13 11 16 18 18 19 15 11 14 15 10 9 5 8 9 6 4 2 1 5 4 2 4 8 12 4 9 6 5 4 5 10 17 18 11 11 12 13 13 10 18 17 13 19 26 2 8 6 4 5 8 10 9 7 8 7 6 9 11 10 11
4 0 1 0 6 3 6 1 5 6 12 9 10 12 11 17 13 9 6 6 11 13 12 19 21 13 10 13 19 22 22 14 5 2 5 7 5 6 4 5 6 10 9 7 1 7 7 6 6 8 10 13 4 11 9 6 2 5 17 27 12 11 15 12 16 16 20 19 14 17 23 21 16 4 4 6 8 9 9 9 9 7 7 11 12 13 12 10
Wind_Direction
187 190 192 187 159 133 358 10 23 21 14 24 25 18 16 12 13 16 11 8 4 4 357 352 353 344 338 339 340 345 357 69 29 32 46 239 59 269 328 330 340 328 348 40 20 49 339 11 4 341 24 57 317 45 293 48 60 55 65 114 70 191 133 201 171 189 207 141 220 198 190 112 155 322 188 52 37 75 21 57 317 3 25 276 287 335 324 128
184 192 195 192 192 266 308 1 22 5 15 15 19 19 16 11 7 5 8 1 358 358 355 352 344 343 332 333 340 347 19 46 56 63 228 32 308 11 9 11 359 338 305 41 56 71 69 341 332 27 36 48 324 325 23 333 79 89 121 87 185 193 225 146 205 197 120 240 170 201 131 141 200 141 230 109 306 51 70 353 21 4 343 26 29 8 76 112
191 205 200 203 182 204 223 340 17 351 9 11 6 15 17 8 358 1 360 359 354 352 351 345 341 334 332 332 334 348 6 1 33 257 276 355 5 5 15 11 18 15 52 97 165 121 98 237 289 56 7 98 9 283 32 322 52 190 109 87 245 205 235 207 184 198 209 133 144 151 167 153 223 140 146 206 177 46 195 184 310 229 227 208 273 53 82 106
193 206 205 203 167 203 244 354 12 7 10 1 354 5 6 1 356 359 356 353 352 348 344 342 336 332 333 332 335 331 76 55 245 251 301 320 341 14 14 8 46 49 57 70 156 109 132 74 59 71 25 64 309 42 48 322 63 251 69 160 204 184 112 241 169 238 213 156 144 136 115 135 240 207 151 168 107 260 259 221 172 200 197 196 195 150 119 121
207 211 214 209 197 187 353 346 356 356 355 353 357 354 357 352 354 351 350 348 347 344 342 338 335 334 334 340 335 68 58 61 228 242 298 338 355 9 9 15 39 57 91 150 90 48 74 74 80 38 76 284 8 11 42 331 100 84 59 215 173 125 57 227 204 160 142 176 104 111 125 202 99 56 115 149 170 227 213 228 212 196 173 170 173 176 133 132
220 220 221 215 217 237 265 278 341 344 342 348 355 351 352 351 352 345 346 343 342 342 341 340 336 338 336 343 33 66 81 82 252 325 338 341 351 6 4 14 36 83 132 45 95 20 59 354 61 25 8 57 325 96 298 106 338 78 318 321 208 200 145 239 168 211 147 117 121 151 214 82 125 214 203 173 195 230 248 255 230 177 168 156 129 139 137 145
221 224 219 225 230 254 299 333 334 316 331 349 349 356 348 352 345 343 342 341 341 342 343 341 341 339 335 10 26 89 114 268 16 271 4 350 351 18 18 25 45 44 59 54 16 65 27 62 70 111 89 72 294 80 352 318 20 104 171 316 268 188 206 171 198 148 168 123 196 203 74 166 134 222 141 211 246 256 329 25 143 126 121 133 136 165 156 159
220 225 219 224 239 265 286 342 325 285 344 353 350 349 348 346 343 339 341 339 340 343 344 345 344 340 350 63 38 3 41 254 278 326 333 342 11 344 41 35 42 58 53 70 103 73 102 43 118 157 62 134 210 123 331 5 23 86 83 224 255 149 257 258 70 156 149 173 126 115 138 229 174 185 89 246 240 146 55 85 101 115 118 124 138 153 149 142
218 223 228 239 248 273 277 301 305 306 328 344 355 344 347 347 344 337 337 339 342 341 345 346 344 343 337 72 114 53 271 241 210 310 7 26 346 18 36 325 26 76 123 56 16 145 124 261 101 192 239 137 176 99 343 129 321 149 198 146 336 298 330 358 50 258 205 129 121 102 233 294 242 306 245 236 200 175 112 91 113 120 128 153 164 162 159 158
230 225 220 229 254 269 271 271 278 295 301 318 342 347 344 348 344 341 332 338 339 341 342 346 349 337 36 90 47 92 261 277 316 340 46 67 31 52 45 76 51 76 84 330 38 53 80 204 137 173 126 84 94 60 259 79 237 136 152 170 166 336 352 329 195 244 230 229 204 180 230 233 351 130 269 343 191 133 109 120 134 142 161 169 164 169 172 162
226 241 243 215 207 260 272 271 284 296 301 307 324 339 341 343 342 342 336 331 339 337 344 348 354 3 61 69 114 216 229 55 27 7 44 63 62 60 23 353 67 74 97 25 73 224 127 146 166 138 51 219 109 334 78 237 150 38 132 224 330 335 254 221 318 268 62 271 171 179 229 272 304 100 234 211 188 164 145 158 167 168 170 175 174 177 184 180
223 228 237 235 244 255 260 263 277 290 301 300 319 330 335 339 341 338 338 330 331 337 340 345 16 57 83 69 146 213 282 247 332 23 32 55 76 126 196 93 75 139 140 137 332 286 180 147 119 63 216 167 44 357 56 190 66 266 19 329 301 356 351 225 206 236 159 246 154 159 338 272 181 231 244 255 148 161 156 171 184 188 193 187 183 174 179 192
222 230 235 239 245 250 258 266 268 281 288 298 306 322 330 335 336 338 333 336 327 329 334 345 14 64 93 347 239 238 284 286 61 112 53 58 102 64 76 60 93 99 139 134 168 274 167 131 115 79 181 100 161 105 199 73 335 128 36 93 333 356 328 306 255 30 152 241 156 165 273 262 242 238 269 167 150 127 147 192 204 206 201 199 187 187 196 210
202 228 241 239 241 245 249 260 269 288 300 302 305 317 325 330 333 332 330 322 325 324 333 348 64 55 83 241 267 252 282 234 114 72 92 357 91 341 26 14 59 56 53 100 114 154 109 174 100 115 138 84 129 326 43 338 23 160 255 61 224 5 273 281 115 167 150 194 171 81 213 280 269 281 262 183 167 162 189 205 210 210 209 205 203 196 203 216
189 192 218 231 235 245 251 257 267 291 320 314 313 313 322 322 323 322 318 314 318 327 334 30 32 54 82 266 252 294 261 122 59 233 260 116 110 38 8 15 28 16 56 84 137 86 142 91 72 43 76 272 38 69 2 22 358 18 44 284 324 156 277 294 251 171 163 321 325 108 275 252 272 267 268 185 182 177 199 206 213 214 210 209 207 208 210 215
191 193 203 218 227 233 243 253 266 290 304 309 317 322 318 316 317 314 310 292 295 353 342 100 2 101 100 293 242 347 38 152 217 215 267 116 100 147 176 114 10 17 34 5 52 67 39 84 70 181 169 15 58 92 47 29 334 351 119 267 259 83 265 336 6 274 107 116 356 171 221 329 307 305 313 174 178 197 210 224 223 220 217 212 211 212 212 214
196 196 201 212 222 229 228 239 252 285 305 314 319 315 308 302 311 318 300 297 329 73 80 154 88 108 208 254 32 301 232 241 270 71 57 26 107 149 97 48 21 11 13 37 20 50 355 63 290 18 32 114 131 98 74 355 311 293 21 218 204 186 259 263 303 267 257 137 200 257 221 238 241 293 19 201 188 192 223 233 227 222 220 218 216 215 212 212
197 197 200 205 214 220 225 209 239 266 294 308 306 303 299 302 336 354 24 38 36 88 32 168 132 60 282 12 229 233 235 135 111 144 81 319 109 79 91 91 34 70 42 36 355 79 329 80 35 183 1 26 98 72 130 231 198 211 199 284 293 260 207 247 326 259 127 347 188 212 234 264 269 267 213 210 192 198 224 224 227 225 225 222 219 216 215 212
197 194 196 200 204 212 212 211 226 261 278 309 321 313 289 340 41 83 62 6 79 22 28 216 154 164 209 232 174 55 99 226 98 105 184 101 42 96 68 86 77 115 92 79 251 102 349 66 32 46 207 173 210 180 183 217 154 188 169 185 178 216 238 204 239 274 177 190 230 204 218 241 258 269 257 208 198 205 230 250 259 230 225 227 222 220 213 213
195 194 193 195 200 199 204 210 219 254 304 341 347 354 43 32 16 339 336 13 224 185 179 210 199 255 74 2 140 287 246 49 115 319 89 295 110 70 37 71 36 61 111 176 297 149 104 137 172 197 217 211 206 194 205 181 142 108 103 124 215 221 279 281 272 263 282 58 229 222 231 239 253 255 262 213 182 232 244 244 239 233 223 222 222 218 216 212
195 193 189 190 191 191 199 207 217 240 331 81 28 53 168 180 123 248 218 249 268 195 204 299 211 157 267 154 248 158 120 323 56 164 192 126 103 115 209 71 53 165 284 187 144 294 65 141 235 222 221 199 202 203 133 101 122 184 140 181 269 162 250 240 257 360 333 173 293 250 241 248 248 257 261 216 164 228 225 231 238 234 226 223 218 220 214 209
194 192 189 188 187 189 196 202 219 220 122 134 82 193 274 217 178 216 123 257 253 244 230 243 4 287 355 197 242 146 75 88 324 229 266 140 174 147 261 118 158 189 187 116 51 83 150 197 228 230 152 110 102 165 191 183 194 79 198 228 276 265 250 278 267 276 263 122 256 270 256 256 252 252 263 237 219 231 222 217 225 222 226 225 219 220 208 173
190 191 189 185 186 185 191 202 216 196 145 158 208 207 241 236 265 201 98 113 288 273 215 213 250 238 264 299 265 123 164 166 189 211 200 133 121 210 146 131 168 122 121 168 163 156 254 281 245 205 129 121 98 114 136 115 46 187 142 161 235 233 88 292 301 10 230 175 266 6 306 277 277 260 250 246 223 234 235 228 237 225 225 222 216 207 199 197
192 187 187 185 180 182 188 197 196 179 235 192 193 200 239 266 102 79 72 254 270 291 197 217 199 184 204 148 210 146 171 230 112 197 248 141 159 174 124 165 138 127 182 192 181 178 202 208 306 153 166 170 184 132 125 147 232 238 200 208 229 208 230 193 252 318 292 335 43 318 287 276 240 261 264 254 251 240 254 245 253 247 235 236 233 217 204 197
189 186 184 180 177 168 186 164 200 217 136 215 252 237 244 210 90 27 50 330 345 282 274 353 147 227 198 46 103 161 233 336 225 195 171 147 138 116 211 151 104 199 183 203 217 277 271 254 91 108 169 180 137 137 192 156 230 278 227 199 214 214 231 261 322 356 3 328 346 63 319 277 257 236 245 272 358 267 255 236 248 244 232 222 220 217 197 202
189 185 183 176 169 171 159 173 222 157 180 216 211 212 227 213 241 9 90 84 278 257 32 238 142 253 134 204 121 162 72 250 211 190 151 191 113 140 94 178 145 205 195 143 201 216 220 191 147 169 149 171 183 189 223 165 206 206 270 196 213 213 216 230 242 87 293 243 292 36 228 285 235 254 239 255 239 251 271 240 250 249 235 215 224 210 192 187
189 185 179 173 170 162 159 217 137 131 180 254 223 207 192 177 126 124 112 2 300 193 167 264 137 263 132 191 143 115 157 247 40 107 136 236 179 340 139 190 60 13 149 165 24 263 126 223 108 88 118 150 170 208 238 179 151 232 253 177 194 186 196 219 176 188 238 258 297 44 120 270 293 258 212 213 221 253 277 266 252 245 238 225 224 206 195 189
189 183 179 175 176 177 203 123 146 179 193 214 167 155 133 140 110 103 84 38 268 109 133 228 217 358 90 192 156 166 219 161 124 230 88 211 99 359 145 195 180 176 180 114 219 271 154 183 172 151 149 148 192 206 175 152 153 217 264 147 163 183 197 138 153 195 220 25 285 309 359 317 251 275 331 155 207 264 254 253 259 248 229 228 220 210 201 193
188 184 178 177 181 186 208 149 190 204 208 72 121 127 111 122 112 104 134 192 241 88 314 88 276 59 20 102 176 81 136 354 169 316 306 61 27 139 205 210 176 172 203 179 224 260 302 173 202 175 158 208 212 231 154 160 195 251 123 87 81 78 67 104 95 105 317 34 257 196 190 213 277 205 143 347 172 231 243 249 254 263 234 218 216 213 198 188
190 185 179 175 176 186 213 242 240 224 101 124 133 122 116 112 89 141 76 239 103 228 140 202 160 191 146 152 193 38 147 347 54 101 45 153 209 33 27 149 121 126 222 295 278 198 256 287 169 135 200 194 119 30 174 185 159 131 90 73 28 41 32 25 62 79 20 262 250 189 204 161 279 182 185 144 198 201 231 269 276 297 292 258 231 205 189 185
190 186 181 173 186 184 160 225 222 166 152 133 132 120 115 36 148 157 211 218 37 151 44 162 183 104 150 153 177 297 89 92 125 153 137 101 73 55 175 31 41 67 23 329 268 338 359 23 154 245 101 109 102 79 24 75 139 133 106 120 61 345 12 35 343 37 121 267 199 201 188 183 225 284 268 238 278 251 211 232 260 279 264 246 217 207 193 182
193 187 182 182 174 147 184 213 172 139 167 154 136 145 140 148 338 197 218 58 276 202 165 188 231 162 177 175 154 176 172 64 181 170 163 177 160 174 209 185 147 122 274 213 255 42 262 220 242 329 212 134 118 84 5 42 92 85 97 92 126 246 34 288 24 258 199 239 333 8 104 352 240 243 236 266 259 257 225 223 238 249 263 252 227 204 187 176
202 192 186 187 165 192 202 88 138 158 164 155 111 56 149 158 201 203 242 155 244 129 244 87 167 160 163 142 211 169 40 176 180 190 130 166 161 222 224 197 198 148 207 203 202 78 269 296 281 243 73 238 145 158 173 53 218 144 154 153 126 134 215 262 270 266 305 295 282 336 86 252 316 287 219 247 246 237 240 230 236 234 244 242 219 193 180 181
203 195 192 194 193 189 157 130 130 142 154 153 144 170 357 207 214 193 210 208 207 340 89 115 103 92 156 174 201 150 180 245 154 204 174 167 180 204 229 244 203 256 89 113 174 187 239 304 241 139 240 174 182 197 183 162 164 201 113 161 185 154 157 211 202 213 229 228 285 278 121 234 117 244 256 249 308 310 257 251 245 255 258 266 222 176 173 178
207 196 195 190 194 194 173 158 152 159 158 153 160 178 183 207 218 202 216 208 208 65 40 123 127 138 219 329 311 193 127 201 190 131 190 152 203 207 189 207 217 137 148 151 250 80 210 237 267 208 297 157 187 211 107 89 77 215 168 57 99 215 144 229 199 177 251 327 333 205 212 192 195 245 295 242 282 291 267 281 281 265 268 206 158 181 189 190
225 208 195 191 195 187 172 159 163 164 168 169 174 194 200 182 199 193 228 144 114 130 140 59 70 141 199 198 344 194 283 117 197 127 233 219 228 202 213 202 193 189 162 193 159 167 47 270 282 343 50 174 182 132 176 149 197 205 110 203 208 158 126 76 29 42 110 36 255 140 276 272 304 274 234 244 249 267 299 279 261 258 260 202 210 198 198 193
242 216 212 192 203 169 172 166 163 169 177 185 185 203 201 219 215 157 205 182 178 132 137 143 224 166 181 207 194 189 217 80 181 153 217 135 286 215 216 236 179 192 209 162 281 199 157 237 304 95 207 317 148 182 106 26 143 98 187 226 118 109 106 148 226 347 67 211 271 135 242 284 50 282 353 48 243 259 270 263 250 275 232 216 218 204 197 196
242 222 223 204 193 165 167 166 163 183 183 188 209 225 203 226 204 189 142 105 96 157 166 194 236 160 198 177 207 177 210 175 191 185 209 180 241 197 184 201 202 191 206 183 180 257 142 280 313 317 130 305 350 107 35 355 23 147 195 189 129 237 246 290 96 258 217 256 274 281 235 261 196 248 77 197 202 242 249 256 281 266 237 229 219 215 203 187
247 276 248 213 161 163 170 166 174 182 195 207 197 212 216 225 169 150 182 153 165 159 198 209 177 220 165 191 173 166 164 188 171 193 156 221 218 192 188 174 222 205 195 175 207 230 113 194 293 333 136 307 12 137 199 189 4 47 80 105 66 98 173 139 199 179 119 257 49 277 95 265 146 223 186 220 201 217 237 262 250 249 246 219 208 202 198 195
208 253 257 118 156 171 166 169 179 193 194 202 194 225 166 220 199 227 220 167 190 171 214 198 201 145 189 204 161 164 215 196 164 194 196 206 204 282 186 192 169 178 179 185 204 136 210 156 251 272 312 114 190 195 202 161 175 156 134 187 171 35 246 113 7 142 169 182 188 278 295 261 235 199 183 202 202 216 212 232 248 255 258 211 205 198 199 199
172 245 273 150 165 157 161 174 190 193 202 224 231 225 194 205 187 215 222 270 326 354 174 210 173 200 172 156 244 197 173 180 186 189 198 230 188 240 200 176 144 159 135 179 212 184 171 176 206 138 267 221 246 255 214 196 195 185 180 192 180 141 146 151 250 58 131 142 244 151 258 277 260 177 198 194 222 221 235 241 273 280 298 214 211 209 203 199
181 216 237 156 148 157 166 190 201 187 200 198 208 200 216 189 75 194 190 230 245 241 46 128 249 197 168 199 175 185 150 187 190 191 226 209 214 215 250 176 175 149 148 177 200 203 168 146 106 202 213 198 215 264 246 207 79 160 176 237 187 183 153 168 205 229 17 248 108 197 49 275 183 177 237 228 224 267 273 232 267 282 272 236 211 200 208 208
199 231 24 164 155 163 184 203 196 200 202 215 118 6 300 299 214 173 181 191 209 198 214 213 200 190 232 180 180 170 172 198 180 204 199 221 233 205 216 181 142 161 152 2 50 296 102 143 188 261 336 311 313 306 34 106 112 2 325 120 137 197 190 201 199 173 185 173 177 271 258 259 358 129 273 258 255 263 257 209 250 277 269 223 191 190 193 191
215 229 183 224 174 168 189 205 200 211 217 219 212 220 206 226 164 163 199 190 193 173 207 192 8 221 213 139 138 185 182 216 217 204 229 204 245 209 147 166 162 171 167 204 171 181 153 240 192 144 7 346 342 341 316 347 111 198 165 197 199 203 180 105 94 86 197 215 170 161 238 252 250 354 303 323 318 307 276 246 206 255 268 214 202 196 191 183
266 248 191 205 193 186 219 193 204 199 202 211 196 209 200 220 215 214 190 196 193 212 181 227 202 145 209 162 185 183 190 202 196 215 212 195 221 75 272 178 184 186 208 246 311 173 185 168 175 193 209 217 216 205 211 197 194 186 234 189 188 189 174 154 226 188 229 224 157 204 245 246 296 320 305 289 323 299 269 242 256 230 256 230 208 194 193 187
226 234 163 187 214 227 213 222 280 196 209 207 213 219 205 212 223 212 185 217 193 199 207 105 141 156 186 164 185 200 208 213 210 169 196 220 231 262 206 192 195 196 203 157 171 160 193 223 197 197 204 216 226 227 69 102 83 191 211 177 201 201 196 199 209 195 221 198 177 224 232 250 266 255 276 275 264 249 286 305 287 282 255 232 209 196 193 194
323 249 167 203 152 226 236 210 203 180 203 185 226 161 205 211 200 168 166 210 207 199 189 146 155 171 206 193 207 218 208 211 222 164 199 204 194 191 22 165 235 287 174 141 190 118 65 208 216 217 221 227 216 156 174 152 179 201 180 199 199 191 193 192 203 222 117 104 248 242 204 244 253 229 247 247 274 271 259 260 272 266 270 212 203 193 193 198
235 245 256 240 217 189 208 228 204 188 182 178 214 165 209 208 206 204 170 231 101 186 180 255 215 213 192 197 192 208 183 209 186 217 211 221 111 337 77 359 186 285 112 147 309 166 171 202 219 211 234 238 143 152 164 174 181 187 195 195 193 201 195 201 218 215 148 209 236 230 154 227 251 234 237 227 229 239 242 242 236 241 221 173 164 186 200 205
252 335 272 337 238 242 207 208 210 208 201 184 193 191 198 206 214 210 199 188 213 194 186 215 220 219 213 201 193 203 188 183 227 216 204 175 185 132 169 357 260 85 115 112 189 192 143 251 210 185 228 243 220 140 173 172 190 186 206 202 200 198 203 205 215 215 209 231 246 251 236 248 249 232 207 222 220 235 245 183 142 192 219 187 185 211 213 209
200 210 267 305 214 276 325 265 209 203 224 174 179 196 196 199 217 216 221 185 194 218 192 218 226 221 218 214 200 208 204 208 204 206 198 179 204 186 196 187 144 20 146 183 166 253 147 234 134 125 220 248 222 137 170 182 159 204 223 219 212 207 204 203 210 218 218 238 244 254 274 266 258 173 234 231 226 93 197 224 223 229 200 188 204 216 219 212
285 126 117 24 310 248 246 214 203 196 210 210 221 195 205 208 222 204 216 201 203 199 192 215 224 222 218 215 219 226 221 215 215 213 183 172 200 199 166 240 160 159 176 173 174 216 162 233 71 132 207 244 173 166 168 170 183 209 234 230 221 197 206 212 216 216 192 223 235 249 251 251 151 193 238 195 196 209 222 227 232 235 212 194 208 222 217 213
232 198 100 146 268 196 235 215 220 193 218 187 195 204 199 213 218 193 238 227 223 223 208 216 226 217 215 209 221 226 227 224 236 103 168 195 84 76 112 148 162 167 175 178 87 162 185 152 165 177 212 233 187 158 158 125 144 280 245 232 186 191 208 207 218 210 207 206 213 222 240 249 249 161 185 225 220 226 231 226 228 237 217 205 213 219 218 211